235P/LINEAR (2025)

Japanese version
Home page
Updated on March 26, 2025

---------------------------------------------------------------------

* Profile

* Pictures

* Orbital Elements

Epoch 2025 May 5.0 TT = JDT 2460800.5
T 2025 Dec. 22.56811 TT                                 Pike
q   1.9781115            (2000.0)            P               Q
n   0.15397793     Peri.  352.14495     -0.97624774     +0.20852500
a   3.4474428      Node   200.18407     -0.18836245     -0.95099737
e   0.4262090      Incl.    9.81236     -0.10705106     -0.22830098
P   6.40
From 303 observations 2001 Dec. 26-2025 Jan. 25, mean residual 1".0.

* Finding Charts

* Magnitudes Graph

        m1 = 6.0 + 5 log d + 25.0 log r

---------------------------------------------------------------------

The orbital elements are published on M.P.E.C. 2025-C143.
The charts are made with StellaNavigator Ver.11 (AstroArts).
The magnitudes graphs are made with Comet for Windows.

---------------------------------------------------------------------

Copyright(C) Seiichi Yoshida (comet@aerith.net). All rights reserved.